Regional Weather Roundup
Issued by NWS

Home | Current Version | Previous Version | Graphics & Text | Print | Product List | Glossary On
Versions: 1 2 3 4 5 6 7 8 9 10 11 12 13 14 15 16 17 18 19 20 21 22 23 24 25 26 27 28 29 30 31 32 33 34 35 36 37 38 39 40 41 42 43 44 45 46 47 48 49 50
135
ASUS44 KMEG 260810
RWRTN
TENNESSEE HOURLY STATE WEATHER ROUNDUP
NATIONAL WEATHER SERVICE MEMPHIS TN
300 AM CDT TUE JUL 26 2016

TNZ002-004-019-021-049-052-054-088>092-260900-
WEST TENNESSEE

CITY           SKY/WX    TMP DP  RH WIND       PRES   REMARKS
MEMPHIS INTL   CLEAR     81  74  79 E3        29.97S
NWS MEMPHIS      N/A     77 N/A N/A MISG        N/A
JACKSON        CLEAR     73  72  96 CALM      29.99S
DYERSBURG      CLEAR     73  72  94 MISG      29.99
UNION CITY     PTCLDY    73  73 100 CALM      29.98S
PARIS          CLEAR     70  70 100 CALM      30.01S
LEXINGTON      CLEAR     72  72 100 CALM      29.99S
$$

TNZ008-025-027-028-033-062-065-066-260900-
NORTH MIDDLE TENNESSEE

CITY           SKY/WX    TMP DP  RH WIND       PRES   REMARKS
NASHVILLE      CLEAR     77  71  82 CALM      30.01F
CLARKSVILLE    PTCLDY    73  71  93 E3        30.00F
SMYRNA         CLEAR     75  74  97 CALM      30.02S
COOKEVILLE     CLEAR     73  73 100 CALM      30.03F
CROSSVILLE     PTCLDY    74  70  87 CALM      30.10S
$$

TNZ061-075-076-078-094-096-097-260900-
SOUTH MIDDLE TENNESSEE

CITY           SKY/WX    TMP DP  RH WIND       PRES   REMARKS
FAYETTEVILLE   PTCLDY    77  72  83 S5        30.04S
TULLAHOMA      CLEAR     75  72  88 SE3       30.06S
WINCHESTER     CLEAR     73  72  94 SE3       30.04F
MCMINNVILLE    CLEAR     75  75 100 CALM      30.05S
COLUMBIA       CLEAR    N/A N/A N/A CALM      30.01R
SHELBYVILLE    CLEAR     75  75 100 SE5       30.03F
$$

TNZ017-018-042-046-047-260900-
NORTHEAST TENNESSEE

CITY           SKY/WX    TMP DP  RH WIND       PRES   REMARKS
TRI CITIES     MOCLDY    72  70  93 CALM      30.06S
ELIZABETHTON     N/A     72  70  94 E3        30.06F
$$

TNZ012-013-036-069-073-074-260900-
CENTRAL EAST TENNESSEE

CITY           SKY/WX    TMP DP  RH WIND       PRES   REMARKS
KNOXVILLE      PTCLDY    77  71  82 W8        30.04R
OAK RIDGE      CLEAR     78  72  81 CALM      30.05R
GATLINBURG     CLEAR     73  70  88 CALM      30.03S
MORRISTOWN     CLEAR     77  73  88 CALM      30.04S
$$

TNZ083-085-099-260900-
SOUTHEAST TENNESSEE

CITY           SKY/WX    TMP DP  RH WIND       PRES   REMARKS
CHATTANOOGA    CLOUDY    79  72  79 SW5       30.04F
$$

SKY/WX REPORTED AS FAIR MEANS FEW OR NO CLOUDS BELOW
12 THOUSAND FEET.





USA.gov is the U.S. government's official web portal to all federal, state and local government web resources and services.